Time,TemperatureF,DewpointF,PressureIn,WindDirection,WindDirectionDegrees,WindSpeedMPH,WindSpeedGustMPH,Humidity,HourlyPrecipIn,Conditions,Clouds,dailyrainin,SoftwareType,DateUTC
2013-02-22 00:02:00,40.1,39.0,30.14,ESE,117,1.0,3.0,97,0.00,,,0.00,weatherlink.com 1.10,2013-02-22 08:02:00,
2013-02-22 00:17:00,40.1,39.0,30.13,SE,145,0.0,3.0,97,0.00,,,0.00,weatherlink.com 1.10,2013-02-22 08:17:00,
2013-02-22 00:32:00,40.1,39.0,30.14,SE,141,0.0,5.0,97,0.00,,,0.00,weatherlink.com 1.10,2013-02-22 08:32:00,
2013-02-22 00:47:00,40.2,39.0,30.14,SE,127,2.0,5.0,97,0.00,,,0.00,weatherlink.com 1.10,2013-02-22 08:47:00,
2013-02-22 01:02:00,40.3,40.0,30.15,East,81,1.0,5.0,97,0.00,,,0.00,weatherlink.com 1.10,2013-02-22 09:02:00,
2013-02-22 01:17:00,40.3,40.0,30.14,SE,137,2.0,4.0,97,0.00,,,0.00,weatherlink.com 1.10,2013-02-22 09:17:00,
2013-02-22 01:32:00,40.4,39.0,30.15,SE,138,0.0,4.0,96,0.00,,,0.00,weatherlink.com 1.10,2013-02-22 09:32:00,
2013-02-22 01:47:00,40.5,40.0,30.14,ESE,115,1.0,3.0,97,0.00,,,0.00,weatherlink.com 1.10,2013-02-22 09:47:00,
2013-02-22 02:02:00,40.5,40.0,30.13,SE,124,0.0,6.0,97,0.00,,,0.00,weatherlink.com 1.10,2013-02-22 10:02:00,
2013-02-22 02:17:00,40.6,40.0,30.13,SSE,148,2.0,7.0,96,0.00,,,0.00,weatherlink.com 1.10,2013-02-22 10:17:00,
2013-02-22 02:32:00,40.6,40.0,30.13,East,84,1.0,3.0,96,0.00,,,0.00,weatherlink.com 1.10,2013-02-22 10:32:00,
2013-02-22 02:47:00,40.6,40.0,30.12,ESE,110,4.0,5.0,96,0.00,,,0.00,weatherlink.com 1.10,2013-02-22 10:47:00,
2013-02-22 03:02:00,40.8,40.0,30.11,ESE,103,2.0,8.0,96,0.00,,,0.00,weatherlink.com 1.10,2013-02-22 11:02:00,
2013-02-22 03:17:00,40.8,40.0,30.11,SSE,152,2.0,4.0,96,0.00,,,0.00,weatherlink.com 1.10,2013-02-22 11:17:00,
2013-02-22 03:32:00,40.8,40.0,30.11,ESE,103,2.0,5.0,96,0.00,,,0.00,weatherlink.com 1.10,2013-02-22 11:32:00,
2013-02-22 03:47:00,40.8,40.0,30.10,SE,124,2.0,6.0,96,0.00,,,0.00,weatherlink.com 1.10,2013-02-22 11:47:00,
2013-02-22 04:02:00,40.9,40.0,30.09,SSE,153,1.0,5.0,96,0.00,,,0.00,weatherlink.com 1.10,2013-02-22 12:02:00,
2013-02-22 04:17:00,40.9,40.0,30.08,SE,145,3.0,7.0,96,0.00,,,0.00,weatherlink.com 1.10,2013-02-22 12:17:00,
2013-02-22 04:32:00,41.0,40.0,30.08,SE,143,1.0,7.0,96,0.00,,,0.00,weatherlink.com 1.10,2013-02-22 12:32:00,
2013-02-22 04:47:00,41.1,40.0,30.07,ESE,102,1.0,8.0,96,0.00,,,0.00,weatherlink.com 1.10,2013-02-22 12:47:00,
2013-02-22 05:02:00,41.2,40.0,30.07,East,91,3.0,7.0,96,0.00,,,0.00,weatherlink.com 1.10,2013-02-22 13:02:00,
2013-02-22 05:17:00,41.2,40.0,30.07,SE,140,2.0,6.0,96,0.00,,,0.00,weatherlink.com 1.10,2013-02-22 13:17:00,
2013-02-22 05:33:00,41.4,40.0,30.07,SE,127,3.0,8.0,95,0.00,,,0.00,weatherlink.com 1.10,2013-02-22 13:33:00,
2013-02-22 05:48:00,41.5,40.0,30.07,SSE,150,5.0,9.0,95,0.00,,,0.00,weatherlink.com 1.10,2013-02-22 13:48:00,
2013-02-22 06:03:00,41.6,40.0,30.06,ESE,122,5.0,9.0,95,0.00,,,0.00,weatherlink.com 1.10,2013-02-22 14:03:00,
2013-02-22 06:18:00,41.5,40.0,30.05,ENE,75,5.0,12.0,95,0.00,,,0.00,weatherlink.com 1.10,2013-02-22 14:18:00,
2013-02-22 06:33:00,41.6,40.0,30.04,ESE,112,7.0,10.0,95,0.00,,,0.00,weatherlink.com 1.10,2013-02-22 14:33:00,
2013-02-22 06:48:00,41.6,40.0,30.02,ESE,120,9.0,10.0,94,0.00,,,0.00,weatherlink.com 1.10,2013-02-22 14:48:00,
2013-02-22 07:03:00,41.7,40.0,30.02,SE,141,3.0,10.0,94,0.00,,,0.00,weatherlink.com 1.10,2013-02-22 15:03:00,
2013-02-22 07:18:00,41.9,40.0,30.01,East,79,5.0,16.0,93,0.00,,,0.00,weatherlink.com 1.10,2013-02-22 15:18:00,
2013-02-22 07:33:00,42.0,40.0,30.02,SE,145,4.0,15.0,93,0.00,,,0.00,weatherlink.com 1.10,2013-02-22 15:33:00,
2013-02-22 07:48:00,42.0,40.0,30.01,SSE,155,6.0,11.0,93,0.00,,,0.00,weatherlink.com 1.10,2013-02-22 15:48:00,
2013-02-22 08:03:00,41.6,40.0,30.00,SE,138,5.0,12.0,95,0.03,,,0.03,weatherlink.com 1.10,2013-02-22 16:03:00,
2013-02-22 08:18:00,41.4,40.0,30.00,SE,134,4.0,14.0,95,0.06,,,0.06,weatherlink.com 1.10,2013-02-22 16:18:00,
2013-02-22 08:33:00,41.3,40.0,30.00,SE,143,3.0,11.0,96,0.09,,,0.09,weatherlink.com 1.10,2013-02-22 16:33:00,
2013-02-22 08:48:00,41.4,41.0,30.01,South,181,4.0,9.0,97,0.11,,,0.11,weatherlink.com 1.10,2013-02-22 16:48:00,
2013-02-22 09:03:00,41.5,41.0,30.00,ESE,108,3.0,10.0,97,0.12,,,0.15,weatherlink.com 1.10,2013-02-22 17:03:00,
2013-02-22 09:18:00,41.6,41.0,29.99,ESE,102,8.0,12.0,97,0.09,,,0.16,weatherlink.com 1.10,2013-02-22 17:18:00,
2013-02-22 09:33:00,41.6,41.0,29.98,ENE,73,7.0,19.0,97,0.09,,,0.18,weatherlink.com 1.10,2013-02-22 17:33:00,
2013-02-22 09:48:00,41.7,41.0,29.97,East,91,6.0,13.0,97,0.08,,,0.20,weatherlink.com 1.10,2013-02-22 17:48:00,
2013-02-22 10:03:00,41.8,41.0,29.96,East,79,4.0,15.0,97,0.07,,,0.22,weatherlink.com 1.10,2013-02-22 18:03:00,
2013-02-22 10:18:00,41.9,41.0,29.97,SE,143,4.0,12.0,97,0.07,,,0.23,weatherlink.com 1.10,2013-02-22 18:18:00,
2013-02-22 10:33:00,41.9,41.0,29.96,SE,134,4.0,14.0,97,0.09,,,0.27,weatherlink.com 1.10,2013-02-22 18:33:00,
2013-02-22 10:48:00,42.1,41.0,29.96,East,83,8.0,13.0,97,0.11,,,0.31,weatherlink.com 1.10,2013-02-22 18:48:00,
2013-02-22 11:03:00,42.1,41.0,29.95,SSW,198,6.0,15.0,97,0.13,,,0.35,weatherlink.com 1.10,2013-02-22 19:03:00,
2013-02-22 11:18:00,42.2,41.0,29.95,SE,140,4.0,14.0,97,0.15,,,0.38,weatherlink.com 1.10,2013-02-22 19:18:00,
2013-02-22 11:33:00,42.3,42.0,29.94,SE,131,8.0,10.0,97,0.15,,,0.42,weatherlink.com 1.10,2013-02-22 19:33:00,
2013-02-22 11:48:00,42.3,42.0,29.94,East,98,4.0,13.0,97,0.14,,,0.45,weatherlink.com 1.10,2013-02-22 19:48:00,
2013-02-22 12:03:00,42.3,42.0,29.93,South,186,10.0,13.0,97,0.11,,,0.46,weatherlink.com 1.10,2013-02-22 20:03:00,
2013-02-22 12:18:00,42.3,42.0,29.93,SE,127,4.0,8.0,97,0.11,,,0.49,weatherlink.com 1.10,2013-02-22 20:18:00,
2013-02-22 12:33:00,42.3,42.0,29.92,ESE,116,6.0,12.0,97,0.10,,,0.52,weatherlink.com 1.10,2013-02-22 20:33:00,
2013-02-22 12:48:00,42.3,42.0,29.91,ESE,103,7.0,11.0,97,0.10,,,0.55,weatherlink.com 1.10,2013-02-22 20:48:00,
2013-02-22 13:03:00,42.4,42.0,29.91,East,91,3.0,11.0,97,0.11,,,0.57,weatherlink.com 1.10,2013-02-22 21:03:00,
2013-02-22 13:19:00,42.4,42.0,29.91,SSE,166,5.0,13.0,97,0.11,,,0.60,weatherlink.com 1.10,2013-02-22 21:19:00,
2013-02-22 13:34:00,42.5,42.0,29.89,SSE,150,5.0,11.0,97,0.10,,,0.62,weatherlink.com 1.10,2013-02-22 21:34:00,
2013-02-22 13:49:00,42.6,42.0,29.89,ESE,121,6.0,12.0,97,0.08,,,0.63,weatherlink.com 1.10,2013-02-22 21:49:00,
2013-02-22 14:04:00,42.5,42.0,29.89,ESE,110,5.0,10.0,97,0.06,,,0.63,weatherlink.com 1.10,2013-02-22 22:04:00,
2013-02-22 14:19:00,42.5,42.0,29.88,South,191,1.0,11.0,97,0.04,,,0.64,weatherlink.com 1.10,2013-02-22 22:19:00,
2013-02-22 14:34:00,42.5,42.0,29.87,SE,139,1.0,10.0,97,0.03,,,0.65,weatherlink.com 1.10,2013-02-22 22:34:00,
2013-02-22 14:49:00,42.4,42.0,29.87,East,85,6.0,7.0,97,0.04,,,0.67,weatherlink.com 1.10,2013-02-22 22:49:00,
2013-02-22 15:04:00,42.4,42.0,29.88,South,177,3.0,10.0,97,0.05,,,0.68,weatherlink.com 1.10,2013-02-22 23:04:00,
2013-02-22 15:19:00,42.5,42.0,29.88,ENE,65,3.0,11.0,98,0.05,,,0.69,weatherlink.com 1.10,2013-02-22 23:19:00,
2013-02-22 15:34:00,42.8,42.0,29.88,ENE,71,0.0,3.0,98,0.05,,,0.70,weatherlink.com 1.10,2013-02-22 23:34:00,
2013-02-22 15:49:00,43.2,43.0,29.88,SE,141,1.0,6.0,98,0.03,,,0.70,weatherlink.com 1.10,2013-02-22 23:49:00,
2013-02-22 16:04:00,43.4,43.0,29.88,South,177,0.0,5.0,98,0.02,,,0.70,weatherlink.com 1.10,2013-02-23 00:04:00,
2013-02-22 16:19:00,43.5,43.0,29.87,ENE,72,4.0,6.0,98,0.00,,,0.70,weatherlink.com 1.10,2013-02-23 00:19:00,
2013-02-22 16:34:00,43.4,43.0,29.88,SE,141,5.0,9.0,98,0.02,,,0.72,weatherlink.com 1.10,2013-02-23 00:34:00,
2013-02-22 16:49:00,43.3,42.0,29.89,West,274,4.0,8.0,96,0.02,,,0.72,weatherlink.com 1.10,2013-02-23 00:49:00,
2013-02-22 17:04:00,43.3,42.0,29.89,WNW,288,4.0,13.0,93,0.02,,,0.72,weatherlink.com 1.10,2013-02-23 01:04:00,
2013-02-22 17:19:00,43.6,42.0,29.89,WSW,250,2.0,4.0,92,0.02,,,0.72,weatherlink.com 1.10,2013-02-23 01:19:00,
2013-02-22 17:34:00,43.1,40.0,29.89,SW,233,0.0,4.0,90,0.00,,,0.72,weatherlink.com 1.10,2013-02-23 01:34:00,
2013-02-22 17:49:00,42.5,40.0,29.89,SW,222,0.0,5.0,92,0.00,,,0.72,weatherlink.com 1.10,2013-02-23 01:49:00,
2013-02-22 18:04:00,42.1,40.0,29.90,WNW,289,0.0,7.0,91,0.00,,,0.72,weatherlink.com 1.10,2013-02-23 02:04:00,
2013-02-22 18:19:00,41.9,40.0,29.90,WNW,283,0.0,5.0,92,0.00,,,0.72,weatherlink.com 1.10,2013-02-23 02:19:00,
2013-02-22 18:34:00,41.6,40.0,29.91,North,350,1.0,7.0,93,0.00,,,0.72,weatherlink.com 1.10,2013-02-23 02:34:00,
2013-02-22 18:49:00,40.8,38.0,29.92,North,349,9.0,13.0,91,0.01,,,0.73,weatherlink.com 1.10,2013-02-23 02:49:00,
2013-02-22 19:04:00,39.0,38.0,29.93,NE,35,2.0,8.0,94,0.03,,,0.75,weatherlink.com 1.10,2013-02-23 03:04:00,
2013-02-22 19:19:00,38.5,37.0,29.93,NE,53,6.0,7.0,94,0.03,,,0.75,weatherlink.com 1.10,2013-02-23 03:19:00,
2013-02-22 19:34:00,38.9,37.0,29.93,North,9,2.0,9.0,92,0.03,,,0.75,weatherlink.com 1.10,2013-02-23 03:34:00,
2013-02-22 19:49:00,38.8,36.0,29.94,NNW,347,0.0,6.0,91,0.02,,,0.75,weatherlink.com 1.10,2013-02-23 03:49:00,
2013-02-22 20:04:00,38.3,36.0,29.95,North,353,0.0,3.0,92,0.00,,,0.75,weatherlink.com 1.10,2013-02-23 04:04:00,
2013-02-22 20:19:00,38.3,36.0,29.95,West,264,2.0,8.0,92,0.00,,,0.75,weatherlink.com 1.10,2013-02-23 04:19:00,
2013-02-22 20:34:00,38.1,36.0,29.95,NNE,20,2.0,5.0,92,0.00,,,0.75,weatherlink.com 1.10,2013-02-23 04:34:00,
2013-02-22 20:49:00,37.9,36.0,29.96,NW,319,0.0,3.0,93,0.00,,,0.75,weatherlink.com 1.10,2013-02-23 04:49:00,
2013-02-22 21:04:00,37.5,35.0,29.97,NNE,26,1.0,9.0,92,0.01,,,0.76,weatherlink.com 1.10,2013-02-23 05:04:00,
2013-02-22 21:19:00,36.1,35.0,29.97,NE,47,4.0,9.0,94,0.02,,,0.77,weatherlink.com 1.10,2013-02-23 05:19:00,
2013-02-22 21:34:00,36.5,35.0,29.98,NNW,327,1.0,8.0,94,0.02,,,0.77,weatherlink.com 1.10,2013-02-23 05:34:00,
2013-02-22 21:49:00,37.1,35.0,29.99,NNE,29,1.0,4.0,93,0.03,,,0.78,weatherlink.com 1.10,2013-02-23 05:49:00,
2013-02-22 22:04:00,36.9,35.0,30.00,NW,321,0.0,1.0,94,0.02,,,0.78,weatherlink.com 1.10,2013-02-23 06:04:00,
2013-02-22 22:19:00,36.4,35.0,30.00,North,6,0.0,1.0,95,0.01,,,0.78,weatherlink.com 1.10,2013-02-23 06:19:00,
2013-02-22 22:34:00,36.4,35.0,30.01,NNW,333,1.0,8.0,95,0.01,,,0.78,weatherlink.com 1.10,2013-02-23 06:34:00,
2013-02-22 22:49:00,36.4,35.0,30.02,NNW,329,0.0,4.0,94,0.00,,,0.78,weatherlink.com 1.10,2013-02-23 06:49:00,
2013-02-22 23:04:00,35.9,34.0,30.02,West,273,0.0,2.0,94,0.00,,,0.78,weatherlink.com 1.10,2013-02-23 07:04:00,
2013-02-22 23:19:00,36.0,34.0,30.02,NNE,29,0.0,2.0,93,0.00,,,0.78,weatherlink.com 1.10,2013-02-23 07:19:00,
2013-02-22 23:34:00,36.4,35.0,30.03,NNW,328,0.0,2.0,93,0.00,,,0.78,weatherlink.com 1.10,2013-02-23 07:34:00,
2013-02-22 23:49:00,36.3,35.0,30.04,NW,308,0.0,7.0,94,0.00,,,0.78,weatherlink.com 1.10,2013-02-23 07:49:00,